sat.trackr.live / text

‹ back to catalog

STARLINK-31283

NORAD 59174 · 2024-044Y

PAYLOAD ACTIVE UNKNOWN

§ Identity

Operator
Country
US
Launch date
2024-03-04
Launch site
AFETR
Launch vehicle
Mass (kg)
RCS (m²)

Purposes: comms

External: N2YO · Heavens-Above · Gunter

§ Orbital elements

Epoch: 2026-05-25T04:00:03.998880Z

Period
94.27 min
Inclination
43.0028°
Eccentricity
0.0002208
Mean motion
15.27566740 rev/d
Perigee alt
481.6 km
Apogee alt
484.6 km
Semi-major
6,861.2 km
B*
6.2815e-4
RAAN
348.2108°
Arg perigee
273.4260°
Mean anomaly
105.3160°
Rev number
585

§ Raw data

STARLINK-312831 59174U 24044Y   26145.16671295  .00017057  00000+0  62815-3 0  99992 59174  43.0028 348.2108 0002208 273.4260 105.3160 15.27566740  5854

JSON: /api/v1/satellites/59174 · /tle

For live sub-satellite position, see the globe view (requires WebGL).

§ Visibility from observer

Set your observer location to see the next 7 days of passes ≥ 10°. The values pass through the URL so the page stays shareable.

No JS? Fill the form by hand. The geolocation button needs JavaScript.